ARIANE 2 DEB, 28565

Orbit data source: Space-Track

ARIANE 2 DEB, 28565 is space debris in HEO originally from a launch on Fri, 27 Jan 1989 UTC launched from the French Guiana (FRGUI). Debris objects in space refer to the collection of defunct objects orbiting the Earth. Examples of debris include non-operational satellites, rocket bodies, and fragments generated from explosions, collisions, or faulty payload assembly.

Loading next visibility...
Identifier
28565, 1989-006AG
Orbit
HEO
Country
Flag of FRFR
Related business
Manufacturer
EADS/LV
Mission
Spacecraft
Bus & Motor
Unknown
Mass
Unknown
Launch date (UTC)
1989-01-27 (37 years ago)
Launch vehicle
Unknown
Launch site
French Guiana (FRGUI)
Object type
Payload
Rocket body
Debris
Shape & HBR
Unknown shape, 0.3 m
Radar Cross Section
Medium (>0.1 m² and <1 m²)

Expand to show TLE details & history
Last TLE update: 18 hours ago

TLE from 18 hours ago
0 ARIANE 2 DEB
1 28565U 89006AG  25308.40125544  .00002191  00000-0  11532-1 0  9998
2 28565   8.3547  36.4675 7095429 156.3497 266.7260  2.39335932185212
Epoch: 2025-11-04T09:37Z
TLE epoch observation values (Epoch: 2025-11-04T09:37:48.470Z)
Latitude
0.00001°
Longitude
-151.89516°
Altitude
27,146.94 km
Speed
2.626 km/s
True Right ascension
02h 25m 46s
True Declination
0° 00' 00"
Sunlit
Object was in daylight at epoch
Visualization orbit readout
Latitude
Unknown
Longitude
Unknown
Altitude
Unknown
Speed
Unknown
Apparent Right ascension
Unknown
Apparent Declination
Unknown
Sunlit
N/A
Visualization observer readout
Local Sidereal Time
23:31:01
Azimuth
Unknown
Elevation
Unknown
Doppler factor
Unknown
Orbital elements
Apogee altitude
33,989.979 km
Perigee altitude
480.542 km
Semi-major axis
23,613.398 km
Eccentricity
0.70954
Inclination
8.3547°
RAAN
36.4675°
Arg. of periapsis
156.3497°
True anomaly
203.66471°
Mean anomaly
266.726°
Eccentric anomaly
233.88458°
Mean motion
0.59814 °/min
Orbital period
601.86 mins
BSTAR
0.011532
Loading maneuver chart data...
Computing Atmospheric mass density...
Loading historical data...
Loading historical data...
Loading historical data...
Loading historical data...
Loading historical data...
Loading historical data...
Loading historical data...

Documentation

Showing up to 5 results
|